Participated 3 times
Between 2000 and 2003
Romāns Vainšteins, Latvia
Tour de France 2026 starts from Barcelona, Spain in

Stats and Facts from
Tour de France.

2026   2025   2024   2023  2022  2021  2020  2019   2018  2017   2016   2015  2014  2013   2012   2011  2010   2009   2008   2007   2006   2005   2004   2003   2002   2001   2000   1999   1998   1997  1996   1995   1994   1993   1992  1991   1990   1989   1988   1987   1986   1985   1984   1983  1982  1981   1980   1979  1978  1977   1976  1975  1974  1973   1972   1971   1970  1969   1968   1967   1966   1965  1964  1963   1962   1961   1960   1959   1958   1957  1956   1955   1954   1953   1952  1951  1950  1949   1948  1947  1939   1938   1937   1936   1935   1934   1933  1932   1931   1930  1929   1928   1927   1926  1925  1924  1923   1922   1921   1920   1919  1914   1913   1912   1911   1910  1909   1908   1907   1906  1905  1904   1903 

Tourstats
Sitemap

After stage 21 - 2025:
 16451 starters.
  5464 different riders.
  689 teams.
  2398 stages.
  470 restdays.
  466506.50 km.
  5925 abandoned riders.

Click map for 1952 route.
Facts from Tour de France 1952 Additional info and images from 1952.
  |   Stages.  |   Stage winners.  |   Days in jerseys.  |   Teams.  |   All riders.  |   All riders by age.  |   All riders from.  |  

  |   Rookies.  |   Withdrawls.  |   Average speed.  |   GC.  |   Polka  |   Green  |   White  |   Summits. (In tour)  |   Miscellaneous.  |  

Stage 16 on July 11th. 1952
Pick a stage:  1  2  3  4  5  6  7  8  9  10  11  12  13  14  15  16  17  18  19  20  21  22  23  

After stage 16:    Fausto Coppi  
  PerpignanToulouse | Dist: 200.00km. | Winner: André Rosseel

Podium

Average speed for all riders in stage:  28,749 km./hr.

1
 André Rosseel  Belgium06h 53' 52"=28,995  km/h

2
 Jacques Vivier  Ouest-Sud Ouest06h 53' 52"=28,995  km/h

3
 Mario Baroni  Italy06h 53' 52"=28,995  km/h

4  Siro Bianchi  Sud Est06h 53' 52"=28,995  km/h

5  Jacques Marinelli  Paris06h 53' 52"=28,995  km/h

6  Lucien Teisseire  France06h 53' 52"=28,995  km/h

7  Henri Paret  North Africa06h 53' 52"=28,995  km/h

8  Eugène Telotte  Paris06h 53' 52"=28,995  km/h

9  Jean Goldschmit  Luxembourg06h 53' 52"=28,995  km/h

10  Alois De Hertog  Belgium06h 53' 52"=28,995  km/h

11  Wim van Est  Holland06h 53' 52"=28,995  km/h

12  Marcel Fernandez  North Africa06h 53' 52"=28,995  km/h

13  Walter Diggelmann  Switzerland06h 54' 52"+  00:01:00 =28,925  km/h

14  Antonin Rolland  France06h 54' 52"+  00:01:00 =28,925  km/h

15  Vincent Soler  North Africa06h 54' 52"+  00:01:00 =28,925  km/h

16  José Serra Gil  Spain06h 54' 52"+  00:01:00 =28,925  km/h

17  André Bernard  Ouest-Sud Ouest06h 54' 52"+  00:01:00 =28,925  km/h

18  José Pérez  Spain06h 55' 10"+  00:01:18 =28,904  km/h

19  Ahmed Kebaïli  North Africa06h 55' 10"+  00:01:18 =28,904  km/h

20  Robert Bonnaventure  France06h 55' 10"+  00:01:18 =28,904  km/h

21  Hein Van Breenen  Holland06h 55' 10"+  00:01:18 =28,904  km/h

22  Alexandre Close  Belgium06h 55' 10"+  00:01:18 =28,904  km/h

23  Vincent Vitetta  Sud Est06h 55' 10"+  00:01:18 =28,904  km/h

24  Jan Nolten  Holland06h 55' 35"+  00:01:43 =28,875  km/h

25  Carlo Lafranchi  Switzerland06h 55' 39"+  00:01:47 =28,870  km/h

26  Andrès Trobat  Spain06h 55' 39"+  00:01:47 =28,870  km/h

27  Stan Ockers  Belgium06h 55' 39"+  00:01:47 =28,870  km/h

28  Raphaël Geminiani  France06h 55' 39"+  00:01:47 =28,870  km/h

29  Jean-Baptiste Dotto  France06h 55' 39"+  00:01:47 =28,870  km/h

29  Wout Wagtmans  Holland06h 55' 39"+  00:01:47 =28,870  km/h

29  Bernard Gauthier  France06h 55' 39"+  00:01:47 =28,870  km/h

29  Jean Robic  France06h 55' 39"+  00:01:47 =28,870  km/h

29  Settimo Sabbadini  Ouest-Sud Ouest06h 55' 39"+  00:01:47 =28,870  km/h

29  Gilbert Bauvin  Nord Est-Centre06h 55' 39"+  00:01:47 =28,870  km/h

29  Bernardo Ruíz  Spain06h 55' 39"+  00:01:47 =28,870  km/h

29  Jean Malléjac  Ouest-Sud Ouest06h 55' 39"+  00:01:47 =28,870  km/h

29  Maurice Quentin  France06h 55' 39"+  00:01:47 =28,870  km/h

29  Nello Lauredi  France06h 55' 39"+  00:01:47 =28,870  km/h

29  Adolphe Deledda  Nord Est-Centre06h 55' 39"+  00:01:47 =28,870  km/h

29  Pierre Pardoën  Nord Est-Centre06h 55' 39"+  00:01:47 =28,870  km/h

29  José Gil Sole  Spain06h 55' 39"+  00:01:47 =28,870  km/h

29  Jean Le Guilly  Ouest-Sud Ouest06h 55' 39"+  00:01:47 =28,870  km/h

29  Antonio Gelabert  Spain06h 55' 39"+  00:01:47 =28,870  km/h

29  Luciano Pezzi  Italy06h 55' 39"+  00:01:47 =28,870  km/h

29  Pierre Molineris  Sud Est06h 55' 39"+  00:01:47 =28,870  km/h

29  Henk Faanhof  Holland06h 55' 39"+  00:01:47 =28,870  km/h

29  Gino Bartali  Italy06h 55' 39"+  00:01:47 =28,870  km/h

29  Giovanni Corrieri  Italy06h 55' 39"+  00:01:47 =28,870  km/h

29  Jacques Renaud  Paris06h 55' 39"+  00:01:47 =28,870  km/h

29  Marcel Zelasco  North Africa06h 55' 39"+  00:01:47 =28,870  km/h

29  Heinrich Spuhler  Switzerland06h 55' 39"+  00:01:47 =28,870  km/h

29  Gottfried Weilenmann  Switzerland06h 55' 39"+  00:01:47 =28,870  km/h

29  Roger Decock  Belgium06h 55' 39"+  00:01:47 =28,870  km/h

29  Maurice Neyt  Belgium06h 55' 39"+  00:01:47 =28,870  km/h

29  Eduard Van Ende  Belgium06h 55' 39"+  00:01:47 =28,870  km/h

29  Andrea Carrea  Italy06h 55' 39"+  00:01:47 =28,870  km/h

29  Fausto Coppi  Italy06h 55' 39"+  00:01:47 =28,870  km/h

29  Fiorenzo Crippa  Italy06h 55' 39"+  00:01:47 =28,870  km/h

29  Alfredo Martini  Italy06h 55' 39"+  00:01:47 =28,870  km/h

29  Ettore Milano  Italy06h 55' 39"+  00:01:47 =28,870  km/h

29  Johny Goedert  Luxembourg06h 55' 39"+  00:01:47 =28,870  km/h

29  Jean De Gribaldy  Nord Est-Centre06h 55' 39"+  00:01:47 =28,870  km/h

29  Paul Giguet  Sud Est06h 55' 39"+  00:01:47 =28,870  km/h

29  Adolphe Pezzuli  Sud Est06h 55' 39"+  00:01:47 =28,870  km/h

29  Guy Lapébie  Ouest-Sud Ouest06h 55' 39"+  00:01:47 =28,870  km/h

29  Raymond Scardin  Ouest-Sud Ouest06h 55' 39"+  00:01:47 =28,870  km/h

29  Fiorenzo Magni  Italy06h 55' 39"+  00:01:47 =28,870  km/h

68  Thijs Roks  Holland06h 58' 26"+  00:04:34 =28,678  km/h

69  Gerrit Voorting  Holland06h 58' 26"+  00:04:34 =28,678  km/h

70  Franco Franchi  Italy06h 58' 26"+  00:04:34 =28,678  km/h

71  Jean Bertaina  Sud Est06h 58' 26"+  00:04:34 =28,678  km/h

72  Francisco Masip  Spain07h 03' 28"+  00:09:36 =28,338  km/h

73  Roger Rossinelli  Nord Est-Centre07h 03' 28"+  00:09:36 =28,338  km/h

74  Raoul Remy  France07h 03' 28"+  00:09:36 =28,338  km/h

75  Hans Dekkers  Holland07h 03' 28"+  00:09:36 =28,338  km/h

76  Lucien Lazarides  France07h 03' 28"+  00:09:36 =28,338  km/h

77  Giulio Bresci  Italy07h 17' 04"+  00:23:12 =27,456  km/h

78  Giuseppe Mirando  Sud Est07h 20' 16"+  00:26:24 =27,256  km/h

79  Rene Rotta  Sud Est07h 20' 16"+  00:26:24 =27,256  km/h

80  Jean Delahaye  Ouest-Sud Ouest07h 20' 16"+  00:26:24 =27,256  km/h

81  Georges Decaux  Paris07h 20' 16"+  00:26:24 =27,256  km/h


Todays birthdays.

1889 • Adolphe Landon
1890 • Jules Lebreton
1904 • Julien Grujon
1909 • Erich Metze
1926 • Giovanni Rossi
1928 • Serge Blusson
1928 • Alois Vansteenkiste
1931 • André Dupré
1934 • Alfred Rüegg
1962 • Francisco Espinosa
1962 • Paul Kimmage
1963 • Federico Muñoz
1966 • Andrea Tafi
1971 • Emmanuel Magnien
1973 • Paolo Savoldelli
1985 • Mikhail Ignatyev

 

Optimized for Chrome - Edge
and Opera browsers.